When you browse on this site, cookies collect data to enhance your experience and personalize the content and advertising you see.
Visit our Privacy Policy to learn more. By continuing to use the site, you agree to this use of cookies and data.
  • In Austria
  • List of Countries
  • For 7 days
  • Water Temperature
  • Weather Map
  • News
  • Weather Widgets
  • user-avatar
    Login

    Hourly Weather Pasca

    Today, 23 September, Monday

    Time Temperature Precipitation Wind Pressure Humidity
    00:00 +13°C° 0.2 mm 2 mps 585 mmHg 83%
    01:00 +13°C° 0 mm 1 mps 585 mmHg 82%
    02:00 +13°C° 0.3 mm 1 mps 585 mmHg 82%
    03:00 +13°C° 0.3 mm 1 mps 585 mmHg 82%
    04:00 +12°C° 0.3 mm 1 mps 585 mmHg 82%
    05:00 +13°C° 0.2 mm 1 mps 586 mmHg 81%
    06:00 +14°C° 0.2 mm 1 mps 586 mmHg 80%
    07:00 +14°C° 0 mm 0 mps 587 mmHg 75%
    08:00 +16°C° 0.1 mm 1 mps 588 mmHg 74%
    09:00 +19°C° 0.1 mm 1 mps 588 mmHg 73%
    10:00 +20°C° 0.1 mm 1 mps 589 mmHg 72%
    11:00 +20°C° 0.6 mm 1 mps 588 mmHg 75%
    12:00 +20°C° 0.6 mm 1 mps 587 mmHg 77%
    13:00 +20°C° 0.6 mm 1 mps 586 mmHg 80%
    14:00 +20°C° 0.6 mm 1 mps 586 mmHg 80%
    15:00 +20°C° 0.6 mm 1 mps 585 mmHg 80%
    16:00 +20°C° 0.6 mm 1 mps 585 mmHg 80%
    17:00 +19°C° 0.6 mm 1 mps 585 mmHg 82%
    18:00 +18°C° 0.6 mm 1 mps 585 mmHg 85%
    19:00 +16°C° 0.6 mm 1 mps 585 mmHg 87%
    20:00 +15°C° 0.3 mm 1 mps 585 mmHg 86%
    21:00 +15°C° 0.3 mm 1 mps 585 mmHg 84%
    22:00 +15°C° 0.3 mm 1 mps 586 mmHg 83%
    23:00 +14°C° 0 mm 1 mps 586 mmHg 82%

    Tomorrow, 24 September, Tuesday

    Time Temperature Precipitation Wind Pressure Humidity
    00:00 +14°C° 0 mm 1 mps 585 mmHg 81%
    01:00 +14°C° 0 mm 1 mps 585 mmHg 81%
    02:00 +14°C° 0 mm 1 mps 585 mmHg 80%
    03:00 +13°C° 0 mm 1 mps 585 mmHg 80%
    04:00 +13°C° 0 mm 1 mps 585 mmHg 79%
    05:00 +14°C° 0 mm 1 mps 585 mmHg 79%
    06:00 +14°C° 0 mm 0 mps 586 mmHg 79%
    07:00 +14°C° 0 mm 0 mps 587 mmHg 79%
    08:00 +16°C° 0.2 mm 1 mps 587 mmHg 78%
    09:00 +18°C° 0.2 mm 1 mps 588 mmHg 77%
    10:00 +19°C° 0.2 mm 1 mps 588 mmHg 76%
    11:00 +19°C° 0.8 mm 1 mps 588 mmHg 78%
    12:00 +19°C° 0.8 mm 1 mps 587 mmHg 80%
    13:00 +19°C° 0.8 mm 1 mps 586 mmHg 81%
    14:00 +19°C° 1 mm 1 mps 586 mmHg 84%
    15:00 +18°C° 1 mm 1 mps 585 mmHg 87%
    16:00 +18°C° 1 mm 1 mps 585 mmHg 89%
    17:00 +16°C° 1.2 mm 1 mps 585 mmHg 89%
    18:00 +16°C° 1.2 mm 1 mps 585 mmHg 89%
    19:00 +16°C° 1.2 mm 1 mps 585 mmHg 89%
    20:00 +15°C° 0.5 mm 1 mps 586 mmHg 87%
    21:00 +15°C° 0.5 mm 1 mps 586 mmHg 86%
    22:00 +15°C° 0.5 mm 1 mps 586 mmHg 85%
    23:00 +15°C° 0.2 mm 1 mps 586 mmHg 85%

    Day after tomorrow, 25 September, Wednesday

    Time Temperature Precipitation Wind Pressure Humidity
    00:00 +15°C° 0.2 mm 1 mps 586 mmHg 86%
    01:00 +14°C° 0.2 mm 1 mps 585 mmHg 86%
    02:00 +14°C° 0.1 mm 1 mps 585 mmHg 86%
    03:00 +13°C° 0.1 mm 0 mps 585 mmHg 86%
    04:00 +13°C° 0.1 mm 0 mps 585 mmHg 86%
    05:00 +13°C° 0.3 mm 0 mps 586 mmHg 86%
    06:00 +14°C° 0.3 mm 0 mps 586 mmHg 87%
    07:00 +14°C° 0.3 mm 0 mps 587 mmHg 87%
    08:00 +15°C° 0.3 mm 0 mps 587 mmHg 86%
    09:00 +15°C° 0.3 mm 0 mps 588 mmHg 85%
    10:00 +16°C° 0.3 mm 0 mps 588 mmHg 84%
    11:00 +19°C° 0.8 mm 1 mps 587 mmHg 83%
    12:00 +19°C° 0.8 mm 1 mps 587 mmHg 82%
    13:00 +20°C° 0.8 mm 1 mps 586 mmHg 81%
    14:00 +20°C° 0.8 mm 1 mps 586 mmHg 81%
    15:00 +20°C° 0.8 mm 1 mps 585 mmHg 80%
    16:00 +20°C° 0.8 mm 1 mps 585 mmHg 80%
    17:00 +19°C° 0.8 mm 1 mps 585 mmHg 82%
    18:00 +18°C° 0.8 mm 1 mps 585 mmHg 84%
    19:00 +15°C° 0.8 mm 1 mps 585 mmHg 86%
    20:00 +15°C° 0.3 mm 1 mps 585 mmHg 86%
    21:00 +14°C° 0.3 mm 1 mps 585 mmHg 86%
    22:00 +14°C° 0.3 mm 2 mps 586 mmHg 86%
    23:00 +14°C° 0.1 mm 1 mps 585 mmHg 86%

    26 September, Thursday

    Time Temperature Precipitation Wind Pressure Humidity
    00:00 +13°C° 0.1 mm 1 mps 585 mmHg 85%
    01:00 +13°C° 0.1 mm 1 mps 585 mmHg 84%
    02:00 +13°C° 0.1 mm 1 mps 585 mmHg 84%
    03:00 +13°C° 0.1 mm 1 mps 584 mmHg 85%
    04:00 +13°C° 0.1 mm 1 mps 584 mmHg 85%
    05:00 +14°C° 0.2 mm 1 mps 585 mmHg 86%
    06:00 +14°C° 0.2 mm 1 mps 586 mmHg 86%
    07:00 +15°C° 0.2 mm 1 mps 586 mmHg 86%
    08:00 +15°C° 0.2 mm 1 mps 586 mmHg 85%
    09:00 +16°C° 0.2 mm 1 mps 587 mmHg 84%
    10:00 +18°C° 0.2 mm 1 mps 587 mmHg 83%
    11:00 +18°C° 0.6 mm 1 mps 587 mmHg 84%
    12:00 +18°C° 0.6 mm 1 mps 586 mmHg 85%
    13:00 +19°C° 0.6 mm 1 mps 586 mmHg 86%
    14:00 +18°C° 0.7 mm 1 mps 585 mmHg 87%
    15:00 +18°C° 0.7 mm 1 mps 585 mmHg 87%
    16:00 +16°C° 0.7 mm 1 mps 584 mmHg 88%
    17:00 +16°C° 0.1 mm 1 mps 584 mmHg 88%
    18:00 +15°C° 0.1 mm 1 mps 584 mmHg 87%
    19:00 +15°C° 0.1 mm 1 mps 584 mmHg 87%
    20:00 +14°C° 0.1 mm 1 mps 585 mmHg 86%
    21:00 +14°C° 0.1 mm 1 mps 585 mmHg 86%
    22:00 +14°C° 0.1 mm 1 mps 585 mmHg 85%
    23:00 +14°C° 0 mm 1 mps 585 mmHg 85%

    27 September, Friday

    Time Temperature Precipitation Wind Pressure Humidity
    00:00 +14°C° 0 mm 1 mps 585 mmHg 85%
    01:00 +14°C° 0 mm 1 mps 584 mmHg 86%
    02:00 +13°C° 0 mm 1 mps 584 mmHg 86%
    03:00 +13°C° 0 mm 1 mps 584 mmHg 86%
    04:00 +13°C° 0 mm 1 mps 584 mmHg 86%
    05:00 +14°C° 0 mm 1 mps 585 mmHg 85%
    06:00 +15°C° 0 mm 1 mps 586 mmHg 84%
    07:00 +14°C° 0 mm 0 mps 587 mmHg 83%
    08:00 +16°C° 0.2 mm 1 mps 587 mmHg 81%
    09:00 +19°C° 0.2 mm 1 mps 588 mmHg 79%
    10:00 +20°C° 0.2 mm 1 mps 588 mmHg 77%
    11:00 +20°C° 0.8 mm 1 mps 588 mmHg 75%
    12:00 +21°C° 0.8 mm 1 mps 587 mmHg 74%
    13:00 +21°C° 0.8 mm 1 mps 587 mmHg 73%
    14:00 +21°C° 0.7 mm 1 mps 586 mmHg 75%
    15:00 +20°C° 0.7 mm 1 mps 585 mmHg 76%
    16:00 +20°C° 0.7 mm 1 mps 585 mmHg 77%
    17:00 +18°C° 0.5 mm 1 mps 585 mmHg 81%
    18:00 +16°C° 0.5 mm 1 mps 584 mmHg 84%
    19:00 +15°C° 0.5 mm 1 mps 584 mmHg 87%
    20:00 +14°C° 0 mm 1 mps 584 mmHg 85%
    21:00 +14°C° 0 mm 1 mps 584 mmHg 83%
    22:00 +14°C° 0 mm 1 mps 584 mmHg 80%
    23:00 +13°C° 0.1 mm 1 mps 584 mmHg 80%

    28 September, Saturday

    Time Temperature Precipitation Wind Pressure Humidity
    00:00 +13°C° 0.1 mm 1 mps 584 mmHg 80%
    01:00 +13°C° 0.1 mm 1 mps 584 mmHg 80%
    02:00 +13°C° 0 mm 1 mps 584 mmHg 80%
    03:00 +13°C° 0 mm 1 mps 584 mmHg 80%
    04:00 +12°C° 0 mm 1 mps 583 mmHg 81%
    05:00 +13°C° 0 mm 1 mps 584 mmHg 79%
    06:00 +15°C° 0 mm 1 mps 585 mmHg 77%
    07:00 +16°C° 0 mm 1 mps 586 mmHg 75%
    08:00 +18°C° 0 mm 1 mps 587 mmHg 71%
    09:00 +20°C° 0 mm 1 mps 587 mmHg 68%
    10:00 +20°C° 0 mm 2 mps 588 mmHg 64%
    11:00 +21°C° 0.5 mm 2 mps 588 mmHg 66%
    12:00 +21°C° 0.5 mm 2 mps 587 mmHg 67%
    13:00 +21°C° 0.5 mm 2 mps 586 mmHg 68%
    14:00 +21°C° 0.9 mm 1 mps 586 mmHg 72%
    15:00 +21°C° 0.9 mm 1 mps 585 mmHg 77%
    16:00 +18°C° 0.9 mm 0 mps 584 mmHg 81%
    17:00 +19°C° 0.6 mm 1 mps 584 mmHg 83%
    18:00 +16°C° 0.6 mm 1 mps 584 mmHg 86%
    19:00 +15°C° 0.6 mm 1 mps 584 mmHg 88%
    20:00 +15°C° 0.1 mm 1 mps 584 mmHg 87%
    21:00 +14°C° 0.1 mm 1 mps 584 mmHg 86%
    22:00 +14°C° 0.1 mm 1 mps 584 mmHg 85%
    23:00 +14°C° 0.2 mm 1 mps 584 mmHg 85%
    Show more